KA2FNK Weather Reports


Display with metric or nautical units.
time (UTC)temp
F
wind
direction
speed
MPH
gust
MPH
rain 1hr
in
rain 24hr
in
rain mn
in
humidity
%
barometer
mb
20260903171510 91 217 2.0 16.0 0.00 0.00 0.00 44 1013.2
20260903170957 91 173 0.0 9.0 0.00 0.00 0.00 45 1013.2
20260903170444 91 200 0.0 9.0 0.00 0.00 0.00 45 1013.2
20260903165931 90 188 0.0 8.0 0.00 0.00 0.00 46 1013.3
20260903165418 90 174 0.0 4.0 0.00 0.00 0.00 46 1013.3
20260903164905 89 240 0.0 13.0 0.00 0.00 0.00 45 1013.4
20260903164352 90 226 0.0 16.0 0.00 0.00 0.00 46 1013.4
20260903163839 90 167 3.0 8.0 0.00 0.00 0.00 46 1013.6
20260903163326 90 204 0.0 14.0 0.00 0.00 0.00 49 1013.6
20260903162813 89 134 4.0 6.0 0.00 0.00 0.00 49 1013.4
20260903162300 89 142 0.0 5.0 0.00 0.00 0.00 49 1013.6
20260903161747 89 222 0.0 10.0 0.00 0.00 0.00 50 1013.6
20260903161234 88 197 0.0 5.0 0.00 0.00 0.00 49 1013.6
20260903160721 88 169 3.0 9.0 0.00 0.00 0.00 51 1013.6
20260903160208 87 191 2.0 11.0 0.00 0.00 0.00 51 1013.7
20260903155655 87 256 0.0 11.0 0.00 0.00 0.00 51 1013.7
20260903155142 87 158 5.0 12.0 0.00 0.00 0.00 51 1013.7
20260903154629 87 214 0.0 6.0 0.00 0.00 0.00 52 1013.8
20260903154116 87 150 0.0 0.0 0.00 0.00 0.00 53 1013.8
20260903153603 86 150 0.0 7.0 0.00 0.00 0.00 54 1013.8
20260903153050 86 202 0.0 2.0 0.00 0.00 0.00 55 1013.8
20260903152537 86 291 3.0 7.0 0.00 0.00 0.00 54 1013.7
20260903152024 85 263 3.0 10.0 0.00 0.00 0.00 55 1013.6
20260903151511 85 191 3.0 7.0 0.00 0.00 0.00 55 1013.7
20260903150958 85 181 0.0 5.0 0.00 0.00 0.00 56 1013.8
20260903150445 84 148 0.0 9.0 0.00 0.00 0.00 56 1013.8
20260903145932 84 200 4.0 10.0 0.00 0.00 0.00 56 1013.7
20260903145419 84 215 0.0 9.0 0.00 0.00 0.00 56 1013.7
20260903144906 84 201 7.0 11.0 0.00 0.00 0.00 57 1013.8
20260903144353 84 166 10.0 10.0 0.00 0.00 0.00 57 1013.8
20260903143840 83 222 4.0 9.0 0.00 0.00 0.00 58 1013.8
20260903143327 83 245 4.0 17.0 0.00 0.00 0.00 57 1013.8
20260903142814 84 174 10.0 10.0 0.00 0.00 0.00 58 1013.8
20260903142301 83 255 0.0 3.0 0.00 0.00 0.00 58 1013.8
20260903141748 83 162 4.0 6.0 0.00 0.00 0.00 58 1013.8
20260903141235 83 243 3.0 7.0 0.00 0.00 0.00 57 1013.8
20260903140722 83 252 0.0 9.0 0.00 0.00 0.00 58 1013.9
20260903140209 83 218 3.0 15.0 0.00 0.00 0.00 57 1013.9
20260903135656 83 193 8.0 8.0 0.00 0.00 0.00 58 1013.9
20260903135143 83 187 0.0 13.0 0.00 0.00 0.00 59 1013.9
20260903134630 82 218 0.0 16.0 0.00 0.00 0.00 58 1013.9
20260903134117 82 191 8.0 9.0 0.00 0.00 0.00 58 1013.8
20260903133604 82 167 2.0 10.0 0.00 0.00 0.00 58 1013.8
20260903133051 82 211 0.0 7.0 0.00 0.00 0.00 59 1013.8
20260903132538 82 197 0.0 12.0 0.00 0.00 0.00 59 1013.8
20260903132025 82 200 0.0 4.0 0.00 0.00 0.00 59 1013.8
20260903131512 82 184 0.0 13.0 0.00 0.00 0.00 60 1013.8
20260903130959 82 211 3.0 6.0 0.00 0.00 0.00 60 1013.8
20260903130446 81 194 3.0 8.0 0.00 0.00 0.00 60 1013.7
20260903125933 81 156 3.0 9.0 0.00 0.00 0.00 61 1013.7
20260903125420 81 242 1.0 9.0 0.00 0.00 0.00 61 1013.6
20260903124907 81 240 2.0 18.0 0.00 0.00 0.00 61 1013.6
20260903124354 81 145 2.0 9.0 0.00 0.00 0.00 62 1013.6
20260903123841 80 190 4.0 7.0 0.00 0.00 0.00 62 1013.6
20260903123328 80 195 7.0 8.0 0.00 0.00 0.00 62 1013.6
20260903122815 80 152 3.0 16.0 0.00 0.00 0.00 63 1013.4
20260903122305 80 211 2.0 8.0 0.00 0.00 0.00 63 1013.4
20260903121749 80 135 1.0 8.0 0.00 0.00 0.00 63 1013.4
20260903121236 80 207 4.0 7.0 0.00 0.00 0.00 63 1013.3
20260903120723 80 110 2.0 10.0 0.00 0.00 0.00 63 1013.3
20260903120210 80 197 1.0 8.0 0.00 0.00 0.00 63 1013.2
20260903115657 80 204 0.0 10.0 0.00 0.00 0.00 63 1013.2
20260903115144 80 129 0.0 8.0 0.00 0.00 0.00 63 1013.1
20260903114631 80 188 1.0 10.0 0.00 0.00 0.00 62 1013.1
20260903114118 80 202 0.0 11.0 0.00 0.00 0.00 62 1013.1
20260903113605 80 187 5.0 11.0 0.00 0.00 0.00 62 1013.0
20260903113052 80 187 0.0 12.0 0.00 0.00 0.00 62 1013.1
20260903112539 81 214 0.0 6.0 0.00 0.00 0.00 61 1013.1
20260903112026 80 215 4.0 11.0 0.00 0.00 0.00 61 1013.1
20260903111513 81 204 2.0 10.0 0.00 0.00 0.00 61 1013.1
20260903111000 81 228 0.0 8.0 0.00 0.00 0.00 60 1013.0
20260903110447 81 194 4.0 10.0 0.00 0.00 0.00 60 1012.9
20260903105934 81 163 4.0 10.0 0.00 0.00 0.00 60 1012.9
20260903105421 81 141 0.0 9.0 0.00 0.00 0.00 59 1012.8
20260903104908 82 214 3.0 10.0 0.00 0.00 0.00 59 1012.8
20260903104355 82 235 3.0 13.0 0.00 0.00 0.00 59 1012.7
20260903103842 82 152 0.0 8.0 0.00 0.00 0.00 58 1012.7
20260903103329 82 219 0.0 9.0 0.00 0.00 0.00 58 1012.6
20260903102816 82 198 0.0 12.0 0.00 0.00 0.00 57 1012.6
20260903102305 82 284 0.0 9.0 0.00 0.00 0.00 57 1012.6
20260903101750 82 166 2.0 17.0 0.00 0.00 0.00 56 1012.6
20260903101237 82 248 0.0 11.0 0.00 0.00 0.00 56 1012.5
20260903100724 83 240 2.0 17.0 0.00 0.00 0.00 56 1012.6
20260903100211 83 224 0.0 11.0 0.00 0.00 0.00 55 1012.6
20260903095658 83 208 2.0 14.0 0.00 0.00 0.00 55 1012.5
20260903095145 83 210 0.0 10.0 0.00 0.00 0.00 54 1012.6
20260903094632 83 184 6.0 15.0 0.00 0.00 0.00 54 1012.6
20260903094119 83 146 3.0 8.0 0.00 0.00 0.00 55 1012.5
20260903093606 82 228 6.0 7.0 0.00 0.00 0.00 54 1012.6
20260903093053 83 232 0.0 9.0 0.00 0.00 0.00 54 1012.5
20260903092540 83 143 0.0 8.0 0.00 0.00 0.00 54 1012.5
20260903092027 82 165 0.0 12.0 0.00 0.00 0.00 55 1012.6
20260903091514 82 250 2.0 11.0 0.00 0.00 0.00 54 1012.6
20260903091001 83 202 0.0 10.0 0.00 0.00 0.00 54 1012.6
20260903090448 83 183 4.0 10.0 0.00 0.00 0.00 54 1012.6
20260903085935 83 174 0.0 7.0 0.00 0.00 0.00 54 1012.6
20260903085422 83 208 2.0 5.0 0.00 0.00 0.00 53 1012.6
20260903084909 83 138 0.0 11.0 0.00 0.00 0.00 53 1012.6
20260903084356 83 212 2.0 9.0 0.00 0.00 0.00 53 1012.6
20260903083843 83 204 4.0 9.0 0.00 0.00 0.00 53 1012.6
20260903083330 83 124 2.0 9.0 0.00 0.00 0.00 53 1012.6
20260903083030 83 204 0.0 6.0 0.00 0.00 0.00 53 1012.7
20260903082817 83 204 0.0 6.0 0.00 0.00 0.00 53 1012.7
20260903082306 82 177 0.0 4.0 0.00 0.00 0.00 53 1012.7
20260903081751 82 179 0.0 7.0 0.00 0.00 0.00 53 1012.6
20260903081238 82 177 0.0 8.0 0.00 0.00 0.00 54 1012.7
20260903080725 82 228 3.0 7.0 0.00 0.00 0.00 55 1012.7
20260903080212 82 105 4.0 7.0 0.00 0.00 0.00 55 1012.6
20260903075659 82 142 0.0 0.0 0.00 0.00 0.00 56 1012.5
20260903075146 82 142 0.0 0.0 0.00 0.00 0.00 55 1012.5
20260903074633 82 142 0.0 0.0 0.00 0.00 0.00 55 1012.5
20260903074120 82 142 0.0 2.0 0.00 0.00 0.00 55 1012.4
20260903073607 82 179 0.0 0.0 0.00 0.00 0.00 55 1012.5
20260903073054 82 179 0.0 1.0 0.00 0.00 0.00 55 1012.6
20260903072541 81 179 0.0 5.0 0.00 0.00 0.00 56 1012.6
20260903072028 81 158 0.0 0.0 0.00 0.00 0.00 56 1012.6
20260903071515 81 158 0.0 0.0 0.00 0.00 0.00 56 1012.7
20260903071002 81 158 0.0 0.0 0.00 0.00 0.00 56 1012.7
20260903070449 81 158 0.0 0.0 0.00 0.00 0.00 56 1012.7
20260903065936 82 158 0.0 0.0 0.00 0.00 0.00 56 1012.7
20260903065423 82 158 0.0 0.0 0.00 0.00 0.00 55 1012.7
20260903064910 82 158 0.0 0.0 0.00 0.00 0.00 55 1012.7
20260903064357 82 158 0.0 0.0 0.00 0.00 0.00 55 1012.7
20260903063844 82 158 0.0 0.0 0.00 0.00 0.00 55 1012.7
20260903063331 82 158 0.0 0.0 0.00 0.00 0.00 55 1012.7
20260903062818 83 158 0.0 0.0 0.00 0.00 0.00 54 1012.7
20260903062306 83 158 0.0 0.0 0.00 0.00 0.00 55 1012.7
20260903061752 83 158 0.0 0.0 0.00 0.00 0.00 54 1012.7
20260903061239 83 158 0.0 3.0 0.00 0.00 0.00 54 1012.7
20260903060726 83 136 2.0 2.0 0.00 0.00 0.00 54 1012.8
20260903060213 83 217 0.0 0.0 0.00 0.00 0.00 53 1012.8
20260903055700 83 217 0.0 0.0 0.00 0.00 0.00 53 1012.8
20260903055147 83 217 0.0 0.0 0.00 0.00 0.00 53 1012.8
20260903054634 83 217 0.0 0.0 0.00 0.00 0.00 53 1012.8
20260903054121 83 217 3.0 3.0 0.00 0.00 0.00 52 1012.7
20260903053608 84 197 0.0 0.0 0.00 0.00 0.00 54 1012.7
20260903053055 84 197 0.0 0.0 0.00 0.00 0.00 52 1012.6
20260903052542 85 197 0.0 0.0 0.00 0.00 0.00 50 1012.6
20260903052029 85 197 0.0 0.0 0.00 0.00 0.00 51 1012.6
20260903051516 85 197 0.0 0.0 0.00 0.00 0.00 50 1012.6
20260903051003 85 197 0.0 0.0 0.00 0.00 0.00 50 1012.6
20260903050450 85 197 0.0 0.0 0.00 0.00 0.00 50 1012.6
20260903045937 85 197 0.0 0.0 0.00 0.00 0.00 50 1012.5
20260903045424 85 197 0.0 0.0 0.00 0.00 0.00 49 1012.6
20260903044911 85 197 0.0 0.0 0.00 0.00 0.00 49 1012.5
20260903044358 85 197 0.0 0.0 0.00 0.00 0.00 49 1012.5
20260903043845 85 197 0.0 0.0 0.00 0.00 0.00 50 1012.6
20260903043332 85 197 0.0 0.0 0.00 0.00 0.00 49 1012.6
20260903042819 85 197 0.0 0.0 0.00 0.00 0.00 48 1012.6
20260903042306 86 197 0.0 0.0 0.00 0.00 0.00 48 1012.6
20260903041753 86 197 0.0 0.0 0.00 0.00 0.00 49 1012.5
20260903041240 86 197 0.0 0.0 0.00 0.00 0.00 48 1012.6
20260903040727 86 197 0.0 0.0 0.00 0.00 0.00 48 1012.7
20260903040214 86 197 0.0 0.0 0.00 0.00 0.00 48 1012.6
20260903035701 86 197 0.0 0.0 0.00 0.00 0.00 48 1012.7
20260903035148 87 197 0.0 0.0 0.00 0.00 0.00 48 1012.7
20260903034635 86 197 0.0 0.0 0.00 0.00 0.00 48 1012.7
20260903034122 87 197 0.0 0.0 0.00 0.00 0.00 47 1012.7
20260903033609 87 197 0.0 2.0 0.00 0.00 0.00 48 1012.7
20260903033056 87 187 0.0 0.0 0.00 0.00 0.00 47 1012.7
20260903032543 87 187 0.0 0.0 0.00 0.00 0.00 47 1012.8
20260903032030 87 187 0.0 0.0 0.00 0.00 0.00 46 1012.7
20260903031517 87 187 0.0 0.0 0.00 0.00 0.00 46 1012.7
20260903031004 88 187 0.0 0.0 0.00 0.00 0.00 46 1012.7
20260903030451 88 187 0.0 0.0 0.00 0.00 0.00 46 1012.7
20260903025938 88 187 0.0 0.0 0.00 0.00 0.00 45 1012.6
20260903025425 88 187 0.0 0.0 0.00 0.00 0.00 45 1012.6
20260903024912 88 187 0.0 0.0 0.00 0.00 0.00 46 1012.6
20260903024359 88 187 0.0 0.0 0.00 0.00 0.00 45 1012.6
20260903023846 88 187 0.0 0.0 0.00 0.00 0.00 45 1012.7
20260903023333 88 187 0.0 0.0 0.00 0.00 0.00 45 1012.7
20260903022820 88 187 0.0 0.0 0.00 0.00 0.00 45 1012.7
20260903022307 88 187 0.0 0.0 0.00 0.00 0.00 46 1012.7
20260903021754 88 187 0.0 0.0 0.00 0.00 0.00 46 1012.5
20260903021241 88 187 0.0 0.0 0.00 0.00 0.00 45 1012.5
20260903020728 88 187 0.0 0.0 0.00 0.00 0.00 45 1012.5
20260903020215 88 187 0.0 0.0 0.00 0.00 0.00 44 1012.3
20260903015702 88 187 0.0 0.0 0.00 0.00 0.00 43 1012.3
20260903015149 88 187 0.0 0.0 0.00 0.00 0.00 43 1012.3
20260903014636 89 187 0.0 0.0 0.00 0.00 0.00 42 1012.2
20260903014123 89 187 0.0 0.0 0.00 0.00 0.00 42 1012.2
20260903013610 89 187 0.0 0.0 0.00 0.00 0.00 41 1012.1
20260903013057 90 187 0.0 0.0 0.00 0.00 0.00 41 1012.0
20260903012544 90 187 0.0 0.0 0.00 0.00 0.00 40 1011.9
20260903012031 90 187 0.0 0.0 0.00 0.00 0.00 39 1011.9
20260903011518 91 187 0.0 0.0 0.00 0.00 0.00 38 1011.9
20260903011005 92 187 0.0 0.0 0.00 0.00 0.00 38 1011.8
20260903010452 92 187 0.0 0.0 0.00 0.00 0.00 38 1011.8
20260903005939 92 187 0.0 0.0 0.00 0.00 0.00 37 1011.7
20260903005426 92 187 0.0 0.0 0.00 0.00 0.00 36 1011.7
20260903004913 93 187 0.0 0.0 0.00 0.00 0.00 36 1011.8
20260903004400 93 187 0.0 0.0 0.00 0.00 0.00 35 1011.7
20260903003847 94 187 0.0 0.0 0.00 0.00 0.00 35 1011.7
20260903003334 94 187 0.0 0.0 0.00 0.00 0.00 34 1011.7
20260903002821 94 187 0.0 0.0 0.00 0.00 0.00 33 1011.6
20260903002308 94 187 0.0 0.0 0.00 0.00 0.00 33 1011.7
20260903001755 94 187 0.0 0.0 0.00 0.00 0.00 33 1011.7
20260903001242 95 187 0.0 0.0 0.00 0.00 0.00 33 1011.7
20260903000729 95 187 0.0 4.0 0.00 0.00 0.00 32 1011.7
20260903000218 95 201 4.0 4.0 0.00 0.00 0.00 32 1011.7
20260902235703 95 184 0.0 3.0 0.00 0.00 0.00 32 1011.7
20260902235150 95 181 0.0 7.0 0.00 0.00 0.00 32 1011.8
20260902234637 95 195 2.0 4.0 0.00 0.00 0.00 31 1011.8
20260902234124 95 155 0.0 7.0 0.00 0.00 0.00 32 1011.8
20260902233611 95 273 1.0 2.0 0.00 0.00 0.00 32 1011.8
20260902233058 96 158 0.0 4.0 0.00 0.00 0.00 32 1011.8
20260902232545 96 210 0.0 4.0 0.00 0.00 0.00 32 1011.8
20260902232032 96 198 0.0 0.0 0.00 0.00 0.00 32 1011.8
20260902230436 96 170 0.0 0.0 0.00 0.00 0.00 32 1011.8
20260902225923 96 170 0.0 3.0 0.00 0.00 0.00 31 1011.8
20260902225410 96 202 0.0 6.0 0.00 0.00 0.00 31 1011.9
20260902224857 96 200 5.0 11.0 0.00 0.00 0.00 30 1011.8
20260902224344 96 218 4.0 9.0 0.00 0.00 0.00 31 1011.8
20260902223831 96 190 0.0 10.0 0.00 0.00 0.00 32 1011.8
20260902223318 96 235 0.0 0.0 0.00 0.00 0.00 33 1011.8
20260902222805 96 235 2.0 6.0 0.00 0.00 0.00 31 1011.8
20260902222252 96 276 4.0 10.0 0.00 0.00 0.00 32 1011.9
20260902221739 96 170 0.0 5.0 0.00 0.00 0.00 31 1011.9
20260902221226 96 125 0.0 11.0 0.00 0.00 0.00 31 1011.8
20260902220713 97 219 0.0 8.0 0.00 0.00 0.00 32 1011.9
20260902220200 97 162 0.0 10.0 0.00 0.00 0.00 32 1011.9
20260902215647 97 195 0.0 13.0 0.00 0.00 0.00 31 1012.0
20260902215134 97 190 0.0 2.0 0.00 0.00 0.00 32 1012.0
20260902214621 97 188 0.0 6.0 0.00 0.00 0.00 31 1012.0
20260902214108 97 222 0.0 7.0 0.00 0.00 0.00 32 1012.0
20260902213555 96 163 0.0 10.0 0.00 0.00 0.00 31 1012.1
20260902213042 96 187 0.0 0.0 0.00 0.00 0.00 31 1012.2
20260902211254 96 212 4.0 120.0 0.00 0.00 0.00 30 1012.5